Regional Weather Roundup
Issued by NWS

Home | Current Version | Previous Version | Text Only | Print | Product List | Glossary Off
Versions: 1 2 3 4 5 6 7 8 9 10 11 12 13 14 15 16 17 18 19 20 21 22 23 24 25 26 27

000
ASUS45 KCYS 251210
RWRWY

WYOMING REGIONAL WEATHER ROUNDUP
NATIONAL WEATHER SERVICE CHEYENNE WY
600 AM MDT TUE APR 25 2017

NOTE:  "FAIR" INDICATES FEW OR NO CLOUDS BELOW 12,000 FEET
WITH NO SIGNIFICANT WEATHER AND/OR OBSTRUCTIONS TO VISIBILITY.

WYZ001-251300-
YELLOWSTONE NATIONAL PARK

CITY           SKY/WX    TMP DP  RH WIND       PRES   REMARKS
LK YELLOWSTONE   N/A     28  27  96 CALM      29.65S
6HR MIN TEMP:  27; 6HR MAX TEMP:  30; 6HR PCP:  0.04;

W YELLOWSTONE  NOT AVBL

$$
WYZ002>013-054>058-071-098>099-251300-
NORTHERN WYOMING

CITY           SKY/WX    TMP DP  RH WIND       PRES   REMARKS
JACKSON        CLOUDY    34  34 100 S8        29.64S WCI  27
CODY           LGT RAIN  37  33  85 N12       29.66R WCI  29
GREYBULL       LGT RAIN  42  34  73 N22       29.55R
6HR MIN TEMP:  42; 6HR MAX TEMP:  44; 6HR PCP:  0.01;

WORLAND        LGT RAIN  40  38  93 NW25G35   29.55R WCI  29
6HR MIN TEMP:  40; 6HR MAX TEMP:  44; 6HR PCP:  0.22;

SHERIDAN       SNOW      33  32  96 NW13      29.67R VSB 1/2 WCI  24
6HR MIN TEMP:  33; 6HR MAX TEMP:  40;

BUFFALO        NOT AVBL
GILLETTE       CLOUDY    33  50 100 NE18      29.53R WCI  22
6HR MIN TEMP:  33; 6HR MAX TEMP:  44; 6HR PCP:  0.52;

HULETT         SNOW      30  30 100 NE15G21   29.61S VSB 1/2 WCI  19
NEWCASTLE      PTSUNNY   39  34  81 E17G28    29.51R WCI  30

$$
WYZ014>020-022>026-101>103-251300-
CENTRAL WYOMING

CITY           SKY/WX    TMP DP  RH WIND       PRES   REMARKS
BIG PINEY      FAIR      25  22  88 NE3       29.66S
6HR MIN TEMP:  25; 6HR MAX TEMP:  34;

PINEDALE       CLOUDY    30  28  93 NW5       29.66S WCI  25
DUBOIS         CLOUDY    34  23  64 NW7       29.59S WCI  28
LANDER         CLOUDY    32  28  85 CALM      29.56R
6HR MIN TEMP:  32; 6HR MAX TEMP:  41;

RIVERTON       CLOUDY    36  35  96 CALM      29.57R
6HR MIN TEMP:  35; 6HR MAX TEMP:  41; 6HR PCP: TRACE;

CASPER         LGT RAIN  39  36  89 W17G24    29.53R WCI  30
6HR MIN TEMP:  34; 6HR MAX TEMP:  41; 6HR PCP:  0.07;

DOUGLAS        CLOUDY    38  36  92 W10       29.51F WCI  31
6HR MIN TEMP:  37; 6HR MAX TEMP:  43; 6HR PCP: TRACE;


$$
WYZ021-027>030-104>119-251300-
SOUTHERN WYOMING

CITY           SKY/WX    TMP DP  RH WIND       PRES   REMARKS
EVANSTON       CLOUDY    31  31 100 SW12      29.70F WCI  22
6HR MIN TEMP:  31; 6HR MAX TEMP:  32;

KEMMERER         N/A     30  28  93 W10       29.69S WCI  21
FORT BRIDGER   CLOUDY    33  33 100 W9        29.72F WCI  25
ROCK SPRINGS   FAIR      33  28  81 W23       29.66F WCI  21
6HR MIN TEMP:  33; 6HR MAX TEMP:  35;

DIXON            N/A     33  27  80 CALM      29.72F
RAWLINS        CLOUDY    32  25  75 SW10      29.65R WCI  24
6HR MIN TEMP:  32; 6HR MAX TEMP:  35;

SARATOGA       CLOUDY    34  27  75 SW15      29.68S WCI  24
LARAMIE        FAIR      31  24  75 SW15      29.59S WCI  20
6HR MIN TEMP:  31; 6HR MAX TEMP:  37;

CHEYENNE       FAIR      36  29  75 SW10      29.55F WCI  28
6HR MIN TEMP:  35; 6HR MAX TEMP:  41; 6HR PCP:  0.01;

TORRINGTON     FAIR      43  36  76 W10       29.53R
6HR MIN TEMP:  42; 6HR MAX TEMP:  45; 6HR PCP:  0.02;

PINE BLUFFS    FAIR      36  34  93 NW6       29.57F WCI  31

$$




USA.gov is the U.S. government's official web portal to all federal, state and local government web resources and services.